Regional Weather Roundup
Issued by NWS Cleveland, OH

Home | Current Version | Previous Version | Graphics & Text | Print | Product List | Glossary On
Versions: 1 2 3 4 5 6 7 8 9 10 11 12 13 14 15 16 17 18 19 20 21 22 23 24 25 26 27 28 29 30 31 32 33 34 35 36 37 38 39 40 41 42 43 44 45 46 47 48 49 50
000
ASUS41 KCLE 260300
RWRCLE
OHIO REGIONAL WEATHER ROUNDUP
NATIONAL WEATHER SERVICE WILMINGTON, OH
1100 PM EDT SAT MAR 25 2017

NOTE: "FAIR" INDICATES FEW OR NO CLOUDS BELOW 12,000 FEET WITH NO
SIGNIFICANT WEATHER AND/OR OBSTRUCTIONS TO VISIBILITY.

OHZ001>008-015>018-024>027-034-035-043-044-260400-
   NORTHWEST OHIO

CITY           SKY/WX    TMP DP  RH WIND       PRES   REMARKS
DEFIANCE       FAIR      39  36  89 E13       30.09F
FINDLAY        FAIR      43  36  76 NE10      30.07F
TOLEDO EXPRESS CLOUDY    37  35  92 E16G24    30.12F
TOLEDO EXEC    CLOUDY    39  36  89 NE14      30.14F
LIMA           FAIR      49  45  86 E7        30.05F
$$

OHZ009>014-019>023-028>033-038-089-260400-
   NORTHEAST OHIO

CITY           SKY/WX    TMP DP  RH WIND       PRES   REMARKS
CLE-HOPKINS    CLOUDY    43  36  76 NE6       30.15F
CLE-LAKEFRONT  FAIR      40  37  89 NE15      30.13F
CUY CO. ARPT   PTCLDY    45  39  81 E6        30.14F
LORAIN-ELYRIA  FAIR      41  36  82 NE6       30.12F
ASHTABULA      FAIR      38  36  92 NE6       30.19F
AKRON-CANTON   CLOUDY    56  47  71 E8        30.12F
WOOSTER        NOT AVBL
MANSFIELD      FAIR      59  50  72 E9        30.09F
YOUNGSTOWN     MOCLDY    53  47  79 E7        30.15F
$$

OHZ042-051>053-060>062-070>072-077>081-260400-
  SOUTHWEST OHIO

CITY           SKY/WX    TMP DP  RH WIND       PRES   REMARKS
CINC-COVINGTON MOCLDY    67  50  54 SE9       30.01F
CINC-LUNKEN    FAIR      68  50  52 SE7       30.01F
HAMILTON       FAIR      62  51  67 E3        30.02F
DAYTON         NOT AVBL
WRIGHT-PAT AFB CLOUDY    65  49  55 SE7       30.03F
DAYTON GENERAL FAIR      65  49  56 SE10      30.02F
WILMINGTON     FAIR      62  50  64 E8        30.04F
$$

OHZ036-037-039>041-045>050-054>059-063>069-073>076-082>088-260400-
  CENTRAL AND SOUTHEAST OHIO

CITY           SKY/WX    TMP DP  RH WIND       PRES   REMARKS
COLUMBUS       MOCLDY    64  50  60 E5        30.06S
OSU AIRPORT    FAIR      63  51  65 E6        30.06S
BOLTON FIELD   NOT AVBL
RICKENBACK AFB NOT AVBL
NEWARK         FAIR      55  49  80 CALM      30.07F
MARION         FAIR      57  50  77 NE3       30.07F
LANCASTER      FAIR      56  50  80 CALM      30.07F
ZANESVILLE     FAIR      63  49  60 SE5       30.08F
NEW PHILLY     FAIR      59  51  75 CALM      30.11F
$$




USA.gov is the U.S. government's official web portal to all federal, state and local government web resources and services.